Time,TemperatureF,DewpointF,PressureIn,WindDirection,WindDirectionDegrees,WindSpeedMPH,WindSpeedGustMPH,Humidity,HourlyPrecipIn,Conditions,Clouds,dailyrainin,SoftwareType,DateUTC
2013-05-06 00:00:00,37.6,17.6,30.15,North,0,0.0,0.0,44,0.00,,,0.00,WUHU216HW,2013-05-06 06:00:00,
2013-05-06 00:05:00,37.8,18.3,30.14,North,0,0.0,0.0,45,0.00,,,0.00,WUHU216HW,2013-05-06 06:05:00,
2013-05-06 00:11:00,37.8,18.3,30.14,North,0,0.0,0.0,45,0.00,,,0.00,WUHU216HW,2013-05-06 06:11:00,
2013-05-06 00:17:00,38.2,18.5,30.14,North,0,0.0,0.0,45,0.00,,,0.00,WUHU216HW,2013-05-06 06:17:00,
2013-05-06 00:22:00,38.2,18.5,30.14,North,0,0.0,0.0,45,0.00,,,0.00,WUHU216HW,2013-05-06 06:22:00,
2013-05-06 00:28:00,38.2,18.5,30.14,North,0,0.0,0.0,45,0.00,,,0.00,WUHU216HW,2013-05-06 06:28:00,
2013-05-06 00:33:00,38.2,18.0,30.14,North,0,0.0,0.0,44,0.00,,,0.00,WUHU216HW,2013-05-06 06:33:00,
2013-05-06 00:38:00,37.8,18.3,30.14,North,0,0.0,0.0,45,0.00,,,0.00,WUHU216HW,2013-05-06 06:38:00,
2013-05-06 00:44:00,37.6,18.1,30.14,North,0,0.0,0.0,45,0.00,,,0.00,WUHU216HW,2013-05-06 06:44:00,
2013-05-06 00:50:00,37.6,18.1,30.14,North,0,0.0,0.0,45,0.00,,,0.00,WUHU216HW,2013-05-06 06:50:00,
2013-05-06 00:57:00,37.4,17.9,30.13,North,0,0.0,0.0,45,0.00,,,0.00,WUHU216HW,2013-05-06 06:57:00,
2013-05-06 01:02:00,37.3,17.7,30.13,North,0,0.0,0.0,45,0.00,,,0.00,WUHU216HW,2013-05-06 07:02:00,
2013-05-06 01:08:00,37.1,17.6,30.13,North,0,0.0,0.0,45,0.00,,,0.00,WUHU216HW,2013-05-06 07:08:00,
2013-05-06 01:15:00,36.9,17.9,30.13,North,0,0.0,0.0,46,0.00,,,0.00,WUHU216HW,2013-05-06 07:15:00,
2013-05-06 01:21:00,36.7,17.8,30.13,North,0,0.0,0.0,46,0.00,,,0.00,WUHU216HW,2013-05-06 07:21:00,
2013-05-06 01:27:00,36.4,18.0,30.12,North,0,0.0,0.0,47,0.00,,,0.00,WUHU216HW,2013-05-06 07:27:00,
2013-05-06 01:32:00,36.4,18.0,30.13,North,0,0.0,0.0,47,0.00,,,0.00,WUHU216HW,2013-05-06 07:32:00,
2013-05-06 01:37:00,36.2,17.8,30.13,North,0,0.0,0.0,47,0.00,,,0.00,WUHU216HW,2013-05-06 07:37:00,
2013-05-06 01:44:00,35.8,18.0,30.12,North,0,0.0,0.0,48,0.00,,,0.00,WUHU216HW,2013-05-06 07:44:00,
2013-05-06 01:50:00,35.6,18.4,30.12,North,0,0.0,0.0,49,0.00,,,0.00,WUHU216HW,2013-05-06 07:50:00,
2013-05-06 01:56:00,35.6,18.4,30.12,North,0,0.0,0.0,49,0.00,,,0.00,WUHU216HW,2013-05-06 07:56:00,
2013-05-06 02:02:00,35.6,18.4,30.12,North,0,0.0,0.0,49,0.00,,,0.00,WUHU216HW,2013-05-06 08:02:00,
2013-05-06 02:08:00,35.6,18.4,30.12,North,0,0.0,0.0,49,0.00,,,0.00,WUHU216HW,2013-05-06 08:08:00,
2013-05-06 02:14:00,35.6,18.4,30.11,North,0,0.0,0.0,49,0.00,,,0.00,WUHU216HW,2013-05-06 08:14:00,
2013-05-06 02:20:00,35.8,18.5,30.11,North,0,0.0,0.0,49,0.00,,,0.00,WUHU216HW,2013-05-06 08:20:00,
2013-05-06 02:26:00,35.8,18.5,30.11,North,0,0.0,0.0,49,0.00,,,0.00,WUHU216HW,2013-05-06 08:26:00,
2013-05-06 02:33:00,35.6,18.4,30.11,North,0,0.0,0.0,49,0.00,,,0.00,WUHU216HW,2013-05-06 08:33:00,
2013-05-06 02:39:00,35.6,18.4,30.11,North,0,0.0,0.0,49,0.00,,,0.00,WUHU216HW,2013-05-06 08:39:00,
2013-05-06 02:44:00,35.6,18.4,30.11,North,0,0.0,0.0,49,0.00,,,0.00,WUHU216HW,2013-05-06 08:44:00,
2013-05-06 02:51:00,35.6,18.9,30.10,North,0,0.0,0.0,50,0.00,,,0.00,WUHU216HW,2013-05-06 08:51:00,
2013-05-06 02:56:00,35.6,18.9,30.11,North,0,0.0,0.0,50,0.00,,,0.00,WUHU216HW,2013-05-06 08:56:00,
2013-05-06 03:01:00,35.6,18.9,30.10,North,0,0.0,0.0,50,0.00,,,0.00,WUHU216HW,2013-05-06 09:01:00,
2013-05-06 03:06:00,35.6,18.9,30.10,North,0,0.0,0.0,50,0.00,,,0.00,WUHU216HW,2013-05-06 09:06:00,
2013-05-06 03:14:00,35.5,19.2,30.10,North,0,0.0,0.0,51,0.00,,,0.00,WUHU216HW,2013-05-06 09:14:00,
2013-05-06 03:20:00,35.6,18.9,30.10,North,0,0.0,0.0,50,0.00,,,0.00,WUHU216HW,2013-05-06 09:20:00,
2013-05-06 03:25:00,35.8,19.1,30.10,North,0,0.0,0.0,50,0.00,,,0.00,WUHU216HW,2013-05-06 09:25:00,
2013-05-06 03:31:00,36.0,18.7,30.10,North,0,0.0,0.0,49,0.00,,,0.00,WUHU216HW,2013-05-06 09:31:00,
2013-05-06 03:37:00,36.5,19.2,30.09,North,0,0.0,0.0,49,0.00,,,0.00,WUHU216HW,2013-05-06 09:37:00,
2013-05-06 03:43:00,37.1,19.2,30.09,North,0,0.0,0.0,48,0.00,,,0.00,WUHU216HW,2013-05-06 09:43:00,
2013-05-06 03:48:00,37.1,20.2,30.09,North,0,0.0,0.0,50,0.00,,,0.00,WUHU216HW,2013-05-06 09:48:00,
2013-05-06 03:54:00,36.5,19.7,30.09,North,0,0.0,0.0,50,0.00,,,0.00,WUHU216HW,2013-05-06 09:54:00,
2013-05-06 03:59:00,36.4,19.5,30.09,North,0,0.0,0.0,50,0.00,,,0.00,WUHU216HW,2013-05-06 09:59:00,
2013-05-06 04:06:00,36.4,19.5,30.09,North,0,0.0,0.0,50,0.00,,,0.00,WUHU216HW,2013-05-06 10:06:00,
2013-05-06 04:11:00,36.4,19.0,30.09,North,0,0.0,0.0,49,0.00,,,0.00,WUHU216HW,2013-05-06 10:11:00,
2013-05-06 04:18:00,36.7,19.4,30.08,North,0,0.0,0.0,49,0.00,,,0.00,WUHU216HW,2013-05-06 10:18:00,
2013-05-06 04:23:00,36.7,19.4,30.08,North,0,0.0,0.0,49,0.00,,,0.00,WUHU216HW,2013-05-06 10:23:00,
2013-05-06 04:28:00,37.1,19.2,30.08,North,0,0.0,0.0,48,0.00,,,0.00,WUHU216HW,2013-05-06 10:28:00,
2013-05-06 04:33:00,37.3,19.4,30.08,North,0,0.0,0.0,48,0.00,,,0.00,WUHU216HW,2013-05-06 10:33:00,
2013-05-06 04:38:00,37.3,18.8,30.08,North,0,0.0,0.0,47,0.00,,,0.00,WUHU216HW,2013-05-06 10:38:00,
2013-05-06 04:43:00,37.3,18.8,30.08,North,0,0.0,0.0,47,0.00,,,0.00,WUHU216HW,2013-05-06 10:43:00,
2013-05-06 04:48:00,37.3,18.8,30.08,North,0,0.0,0.0,47,0.00,,,0.00,WUHU216HW,2013-05-06 10:48:00,
2013-05-06 04:53:00,37.3,18.8,30.08,North,0,0.0,0.0,47,0.00,,,0.00,WUHU216HW,2013-05-06 10:53:00,
2013-05-06 05:00:00,37.1,19.7,30.08,North,0,0.0,0.0,49,0.00,,,0.00,WUHU216HW,2013-05-06 11:00:00,
2013-05-06 05:07:00,37.1,19.7,30.08,North,0,0.0,0.0,49,0.00,,,0.00,WUHU216HW,2013-05-06 11:07:00,
2013-05-06 05:12:00,37.1,19.7,30.08,North,0,0.0,0.0,49,0.00,,,0.00,WUHU216HW,2013-05-06 11:12:00,
2013-05-06 05:18:00,37.1,19.7,30.08,North,0,0.0,0.0,49,0.00,,,0.00,WUHU216HW,2013-05-06 11:18:00,
2013-05-06 05:24:00,37.4,19.4,30.08,North,0,0.0,0.0,48,0.00,,,0.00,WUHU216HW,2013-05-06 11:24:00,
2013-05-06 05:31:00,37.8,19.8,30.07,North,0,0.0,0.0,48,0.00,,,0.00,WUHU216HW,2013-05-06 11:31:00,
2013-05-06 05:36:00,37.8,19.3,30.08,North,0,0.0,0.0,47,0.00,,,0.00,WUHU216HW,2013-05-06 11:36:00,
2013-05-06 05:43:00,38.0,20.0,30.08,North,0,0.0,0.0,48,0.00,,,0.00,WUHU216HW,2013-05-06 11:43:00,
2013-05-06 05:48:00,38.0,20.0,30.08,North,0,0.0,0.0,48,0.00,,,0.00,WUHU216HW,2013-05-06 11:48:00,
2013-05-06 05:54:00,38.0,20.0,30.08,North,0,0.0,0.0,48,0.00,,,0.00,WUHU216HW,2013-05-06 11:54:00,
2013-05-06 06:00:00,38.2,19.6,30.08,North,0,0.0,0.0,47,0.00,,,0.00,WUHU216HW,2013-05-06 12:00:00,
2013-05-06 06:06:00,38.2,20.2,30.08,North,0,0.0,0.0,48,0.00,,,0.00,WUHU216HW,2013-05-06 12:06:00,
2013-05-06 06:11:00,38.0,20.0,30.08,North,0,0.0,0.0,48,0.00,,,0.00,WUHU216HW,2013-05-06 12:11:00,
2013-05-06 06:17:00,37.8,19.8,30.08,North,0,0.0,0.0,48,0.00,,,0.00,WUHU216HW,2013-05-06 12:17:00,
2013-05-06 06:23:00,37.8,19.8,30.08,North,0,0.0,0.0,48,0.00,,,0.00,WUHU216HW,2013-05-06 12:23:00,
2013-05-06 06:30:00,38.0,20.0,30.08,North,0,0.0,0.0,48,0.00,,,0.00,WUHU216HW,2013-05-06 12:30:00,
2013-05-06 06:36:00,38.5,20.4,30.08,North,0,0.0,0.0,48,0.00,,,0.00,WUHU216HW,2013-05-06 12:36:00,
2013-05-06 06:42:00,38.9,20.8,30.08,North,0,0.0,0.0,48,0.00,,,0.00,WUHU216HW,2013-05-06 12:42:00,
2013-05-06 06:47:00,39.2,20.6,30.08,North,0,0.0,0.0,47,0.00,,,0.00,WUHU216HW,2013-05-06 12:47:00,
2013-05-06 06:52:00,39.8,22.2,30.08,North,0,0.0,0.0,49,0.00,,,0.00,WUHU216HW,2013-05-06 12:52:00,
2013-05-06 06:59:00,40.7,23.0,30.08,North,0,0.0,0.0,49,0.00,,,0.00,WUHU216HW,2013-05-06 12:59:00,
2013-05-06 07:05:00,41.2,22.4,30.08,North,0,0.0,0.0,47,0.00,,,0.00,WUHU216HW,2013-05-06 13:05:00,
2013-05-06 07:11:00,42.1,22.1,30.08,North,0,0.0,0.0,45,0.00,,,0.00,WUHU216HW,2013-05-06 13:11:00,
2013-05-06 07:16:00,43.0,22.5,30.07,North,0,0.0,0.0,44,0.00,,,0.00,WUHU216HW,2013-05-06 13:16:00,
2013-05-06 07:22:00,43.6,21.9,30.07,North,0,0.0,0.0,42,0.00,,,0.00,WUHU216HW,2013-05-06 13:22:00,
2013-05-06 07:29:00,45.0,22.7,30.07,North,0,0.0,0.0,41,0.00,,,0.00,WUHU216HW,2013-05-06 13:29:00,
2013-05-06 07:34:00,46.1,22.4,30.07,North,0,0.0,0.0,39,0.00,,,0.00,WUHU216HW,2013-05-06 13:34:00,
2013-05-06 07:39:00,47.2,22.7,30.07,North,0,0.0,0.0,38,0.00,,,0.00,WUHU216HW,2013-05-06 13:39:00,
2013-05-06 07:46:00,49.3,23.9,30.07,North,0,0.0,0.0,37,0.00,,,0.00,WUHU216HW,2013-05-06 13:46:00,
2013-05-06 07:51:00,49.5,23.4,30.07,North,0,0.0,0.0,36,0.00,,,0.00,WUHU216HW,2013-05-06 13:51:00,
2013-05-06 07:58:00,51.1,23.5,30.07,North,0,0.0,0.0,34,0.00,,,0.00,WUHU216HW,2013-05-06 13:58:00,
2013-05-06 08:03:00,52.6,24.1,30.07,North,0,0.0,0.0,33,0.00,,,0.00,WUHU216HW,2013-05-06 14:03:00,
2013-05-06 08:09:00,52.2,22.4,30.07,North,0,0.0,0.0,31,0.00,,,0.00,WUHU216HW,2013-05-06 14:09:00,
2013-05-06 08:14:00,53.6,24.4,30.07,North,0,0.0,0.0,32,0.00,,,0.00,WUHU216HW,2013-05-06 14:14:00,
2013-05-06 08:20:00,56.3,26.0,30.07,North,0,0.0,0.0,31,0.00,,,0.00,WUHU216HW,2013-05-06 14:20:00,
2013-05-06 08:26:00,57.8,25.7,30.06,North,0,0.0,0.0,29,0.00,,,0.00,WUHU216HW,2013-05-06 14:26:00,
2013-05-06 08:33:00,57.2,23.2,30.06,North,0,0.0,0.0,27,0.00,,,0.00,WUHU216HW,2013-05-06 14:33:00,
2013-05-06 08:38:00,57.2,23.2,30.06,North,0,0.0,0.0,27,0.00,,,0.00,WUHU216HW,2013-05-06 14:38:00,
2013-05-06 08:44:00,55.1,23.2,30.07,North,0,0.0,0.0,29,0.00,,,0.00,WUHU216HW,2013-05-06 14:44:00,
2013-05-06 08:50:00,53.5,22.0,30.07,North,0,0.0,0.0,29,0.00,,,0.00,WUHU216HW,2013-05-06 14:50:00,
2013-05-06 08:57:00,53.6,23.0,30.07,North,0,0.0,0.0,30,0.00,,,0.00,WUHU216HW,2013-05-06 14:57:00,
2013-05-06 09:03:00,53.1,22.6,30.07,North,0,0.0,0.0,30,0.00,,,0.00,WUHU216HW,2013-05-06 15:03:00,
2013-05-06 09:08:00,53.1,22.6,30.07,North,0,0.0,0.0,30,0.00,,,0.00,WUHU216HW,2013-05-06 15:08:00,
2013-05-06 09:14:00,53.6,23.8,30.07,North,0,0.0,0.0,31,0.00,,,0.00,WUHU216HW,2013-05-06 15:14:00,
2013-05-06 09:19:00,54.7,24.0,30.07,North,0,0.0,0.0,30,0.00,,,0.00,WUHU216HW,2013-05-06 15:19:00,
2013-05-06 09:25:00,54.9,23.1,30.07,North,0,0.0,0.0,29,0.00,,,0.00,WUHU216HW,2013-05-06 15:25:00,
2013-05-06 09:31:00,55.8,24.9,30.07,North,0,0.0,0.0,30,0.00,,,0.00,WUHU216HW,2013-05-06 15:31:00,
2013-05-06 09:37:00,56.9,24.9,30.07,North,0,0.0,0.0,29,0.00,,,0.00,WUHU216HW,2013-05-06 15:37:00,
2013-05-06 09:42:00,58.1,25.0,30.07,North,0,0.0,0.0,28,0.00,,,0.00,WUHU216HW,2013-05-06 15:42:00,
2013-05-06 09:47:00,58.7,24.5,30.07,North,0,0.0,0.0,27,0.00,,,0.00,WUHU216HW,2013-05-06 15:47:00,
2013-05-06 09:53:00,61.2,27.5,30.07,North,0,0.0,0.0,28,0.00,,,0.00,WUHU216HW,2013-05-06 15:53:00,
2013-05-06 09:59:00,61.4,24.8,30.06,North,0,0.0,0.0,25,0.00,,,0.00,WUHU216HW,2013-05-06 15:59:00,
2013-05-06 10:05:00,61.9,25.3,30.06,North,0,0.0,0.0,25,0.00,,,0.00,WUHU216HW,2013-05-06 16:05:00,
2013-05-06 10:12:00,62.1,25.5,30.06,North,0,0.0,0.0,25,0.00,,,0.00,WUHU216HW,2013-05-06 16:12:00,
2013-05-06 10:18:00,60.5,24.1,30.06,North,0,0.0,0.0,25,0.00,,,0.00,WUHU216HW,2013-05-06 16:18:00,
2013-05-06 10:23:00,59.4,24.1,30.06,North,0,0.0,0.0,26,0.00,,,0.00,WUHU216HW,2013-05-06 16:23:00,
2013-05-06 10:28:00,59.4,24.1,30.06,North,0,0.0,0.0,26,0.00,,,0.00,WUHU216HW,2013-05-06 16:28:00,
2013-05-06 10:33:00,59.0,24.9,30.06,North,0,0.0,0.0,27,0.00,,,0.00,WUHU216HW,2013-05-06 16:33:00,
2013-05-06 10:42:00,61.2,25.7,30.06,North,0,0.0,0.0,26,0.00,,,0.00,WUHU216HW,2013-05-06 16:42:00,
2013-05-06 10:47:00,61.9,27.3,30.06,North,0,0.0,0.0,27,0.00,,,0.00,WUHU216HW,2013-05-06 16:47:00,
2013-05-06 10:54:00,62.6,26.9,30.06,North,0,0.0,0.0,26,0.00,,,0.00,WUHU216HW,2013-05-06 16:54:00,
2013-05-06 11:00:00,62.3,25.7,30.06,North,0,0.0,0.0,25,0.00,,,0.00,WUHU216HW,2013-05-06 17:00:00,
2013-05-06 11:06:00,63.0,27.2,30.06,North,0,0.0,0.0,26,0.00,,,0.00,WUHU216HW,2013-05-06 17:06:00,
2013-05-06 11:12:00,62.3,25.7,30.06,North,0,0.0,0.0,25,0.00,,,0.00,WUHU216HW,2013-05-06 17:12:00,
2013-05-06 11:18:00,62.6,25.9,30.06,North,0,0.0,0.0,25,0.00,,,0.00,WUHU216HW,2013-05-06 17:18:00,
2013-05-06 11:24:00,63.0,26.2,30.06,North,0,0.0,0.0,25,0.00,,,0.00,WUHU216HW,2013-05-06 17:24:00,
2013-05-06 11:29:00,62.8,26.1,30.06,North,0,0.0,0.0,25,0.00,,,0.00,WUHU216HW,2013-05-06 17:29:00,
2013-05-06 11:35:00,62.6,25.9,30.06,North,0,0.0,0.0,25,0.00,,,0.00,WUHU216HW,2013-05-06 17:35:00,
2013-05-06 11:41:00,62.6,25.9,30.06,North,0,0.0,0.0,25,0.00,,,0.00,WUHU216HW,2013-05-06 17:41:00,
2013-05-06 11:48:00,63.9,27.0,30.05,North,0,0.0,0.0,25,0.00,,,0.00,WUHU216HW,2013-05-06 17:48:00,
2013-05-06 11:53:00,63.9,27.0,30.05,North,0,0.0,0.0,25,0.00,,,0.00,WUHU216HW,2013-05-06 17:53:00,
2013-05-06 11:59:00,61.7,25.1,30.05,North,0,0.0,0.0,25,0.00,,,0.00,WUHU216HW,2013-05-06 17:59:00,
2013-05-06 12:04:00,61.2,24.7,30.05,North,0,0.0,0.0,25,0.00,,,0.00,WUHU216HW,2013-05-06 18:04:00,
2013-05-06 12:09:00,62.6,25.9,30.05,North,0,0.0,0.0,25,0.00,,,0.00,WUHU216HW,2013-05-06 18:09:00,
2013-05-06 12:15:00,63.5,26.7,30.04,North,0,0.0,0.0,25,0.00,,,0.00,WUHU216HW,2013-05-06 18:15:00,
2013-05-06 12:21:00,62.3,25.7,30.04,North,0,0.0,0.0,25,0.00,,,0.00,WUHU216HW,2013-05-06 18:21:00,
2013-05-06 12:26:00,61.6,26.9,30.04,North,0,0.0,0.0,27,0.00,,,0.00,WUHU216HW,2013-05-06 18:26:00,
2013-05-06 12:33:00,62.8,26.1,30.04,North,0,0.0,0.0,25,0.00,,,0.00,WUHU216HW,2013-05-06 18:33:00,
2013-05-06 12:39:00,63.4,26.6,30.04,North,0,0.0,0.0,25,0.00,,,0.00,WUHU216HW,2013-05-06 18:39:00,
2013-05-06 12:45:00,63.7,26.8,30.04,North,0,0.0,0.0,25,0.00,,,0.00,WUHU216HW,2013-05-06 18:45:00,
2013-05-06 12:52:00,62.6,27.9,30.04,North,0,0.0,0.0,27,0.00,,,0.00,WUHU216HW,2013-05-06 18:52:00,
2013-05-06 12:58:00,61.7,27.1,30.03,North,0,0.0,0.0,27,0.00,,,0.00,WUHU216HW,2013-05-06 18:58:00,
2013-05-06 13:03:00,60.7,26.2,30.04,North,0,0.0,0.0,27,0.00,,,0.00,WUHU216HW,2013-05-06 19:03:00,
2013-05-06 13:08:00,60.8,27.3,30.03,North,0,0.0,0.0,28,0.00,,,0.00,WUHU216HW,2013-05-06 19:08:00,
2013-05-06 13:13:00,60.1,26.6,30.03,North,0,0.0,0.0,28,0.00,,,0.00,WUHU216HW,2013-05-06 19:13:00,
2013-05-06 13:19:00,60.1,26.6,30.03,North,0,0.0,0.0,28,0.00,,,0.00,WUHU216HW,2013-05-06 19:19:00,
2013-05-06 13:25:00,60.1,26.6,30.03,North,0,0.0,0.0,28,0.00,,,0.00,WUHU216HW,2013-05-06 19:25:00,
2013-05-06 13:30:00,59.9,26.6,30.03,North,0,0.0,0.0,28,0.00,,,0.00,WUHU216HW,2013-05-06 19:30:00,
2013-05-06 13:36:00,59.9,26.6,30.03,North,0,0.0,0.0,28,0.00,,,0.00,WUHU216HW,2013-05-06 19:36:00,
2013-05-06 13:41:00,60.1,26.6,30.03,North,0,0.0,0.0,28,0.00,,,0.00,WUHU216HW,2013-05-06 19:41:00,
2013-05-06 13:48:00,61.0,27.5,30.03,North,0,0.0,0.0,28,0.00,,,0.00,WUHU216HW,2013-05-06 19:48:00,
2013-05-06 13:54:00,61.6,27.9,30.03,North,0,0.0,0.0,28,0.00,,,0.00,WUHU216HW,2013-05-06 19:54:00,
2013-05-06 13:59:00,63.0,29.2,30.02,North,0,0.0,0.0,28,0.00,,,0.00,WUHU216HW,2013-05-06 19:59:00,
2013-05-06 14:06:00,65.2,31.1,30.02,North,0,0.0,0.0,28,0.00,,,0.00,WUHU216HW,2013-05-06 20:06:00,
2013-05-06 14:11:00,65.3,29.3,30.02,North,0,0.0,0.0,26,0.00,,,0.00,WUHU216HW,2013-05-06 20:11:00,
2013-05-06 14:17:00,65.5,31.4,30.02,North,0,0.0,0.0,28,0.00,,,0.00,WUHU216HW,2013-05-06 20:17:00,
2013-05-06 14:23:00,64.1,29.2,30.01,North,0,0.0,0.0,27,0.00,,,0.00,WUHU216HW,2013-05-06 20:23:00,
2013-05-06 14:30:00,64.8,30.8,30.01,North,0,0.0,0.0,28,0.00,,,0.00,WUHU216HW,2013-05-06 20:30:00,
2013-05-06 14:36:00,65.2,32.0,30.01,North,0,0.0,0.0,29,0.00,,,0.00,WUHU216HW,2013-05-06 20:36:00,
2013-05-06 14:42:00,65.2,31.1,30.01,North,0,0.0,0.0,28,0.00,,,0.00,WUHU216HW,2013-05-06 20:42:00,
2013-05-06 14:48:00,64.4,31.4,30.01,North,0,0.0,0.0,29,0.00,,,0.00,WUHU216HW,2013-05-06 20:48:00,
2013-05-06 14:54:00,65.2,32.0,30.00,North,0,0.0,0.0,29,0.00,,,0.00,WUHU216HW,2013-05-06 20:54:00,
2013-05-06 15:00:00,65.2,32.0,30.00,North,0,0.0,0.0,29,0.00,,,0.00,WUHU216HW,2013-05-06 21:00:00,
2013-05-06 15:05:00,66.2,32.1,30.00,North,0,0.0,0.0,28,0.00,,,0.00,WUHU216HW,2013-05-06 21:05:00,
2013-05-06 15:11:00,66.2,32.1,30.00,North,0,0.0,0.0,28,0.00,,,0.00,WUHU216HW,2013-05-06 21:11:00,
2013-05-06 15:17:00,66.6,32.3,30.00,North,0,0.0,0.0,28,0.00,,,0.00,WUHU216HW,2013-05-06 21:17:00,
2013-05-06 15:24:00,65.3,31.2,30.00,North,0,0.0,0.0,28,0.00,,,0.00,WUHU216HW,2013-05-06 21:24:00,
2013-05-06 15:29:00,63.4,29.4,30.00,North,0,0.0,0.0,28,0.00,,,0.00,WUHU216HW,2013-05-06 21:29:00,
2013-05-06 15:35:00,63.2,30.3,29.99,North,0,0.0,0.0,29,0.00,,,0.00,WUHU216HW,2013-05-06 21:35:00,
2013-05-06 15:41:00,62.8,30.0,29.99,North,0,0.0,0.0,29,0.00,,,0.00,WUHU216HW,2013-05-06 21:41:00,
2013-05-06 15:46:00,62.8,30.0,29.99,North,0,0.0,0.0,29,0.00,,,0.00,WUHU216HW,2013-05-06 21:46:00,
2013-05-06 15:53:00,62.6,29.8,29.99,North,0,0.0,0.0,29,0.00,,,0.00,WUHU216HW,2013-05-06 21:53:00,
2013-05-06 15:59:00,62.3,30.4,29.99,North,0,0.0,0.0,30,0.00,,,0.00,WUHU216HW,2013-05-06 21:59:00,
2013-05-06 16:04:00,63.4,30.4,29.98,North,0,0.0,0.0,29,0.00,,,0.00,WUHU216HW,2013-05-06 22:04:00,
2013-05-06 16:09:00,64.3,32.2,29.98,North,0,0.0,0.0,30,0.00,,,0.00,WUHU216HW,2013-05-06 22:09:00,
2013-05-06 16:15:00,63.7,29.8,29.98,North,0,0.0,0.0,28,0.00,,,0.00,WUHU216HW,2013-05-06 22:15:00,
2013-05-06 16:21:00,63.0,29.2,29.98,North,0,0.0,0.0,28,0.00,,,0.00,WUHU216HW,2013-05-06 22:21:00,
2013-05-06 16:27:00,62.5,28.7,29.98,North,0,0.0,0.0,28,0.00,,,0.00,WUHU216HW,2013-05-06 22:27:00,
2013-05-06 16:33:00,61.6,28.9,29.98,North,0,0.0,0.0,29,0.00,,,0.00,WUHU216HW,2013-05-06 22:33:00,
2013-05-06 16:40:00,61.7,30.0,29.98,North,0,0.0,0.0,30,0.00,,,0.00,WUHU216HW,2013-05-06 22:40:00,
2013-05-06 16:46:00,61.2,29.5,29.98,North,0,0.0,0.0,30,0.00,,,0.00,WUHU216HW,2013-05-06 22:46:00,
2013-05-06 16:52:00,61.0,30.1,29.98,North,0,0.0,0.0,31,0.00,,,0.00,WUHU216HW,2013-05-06 22:52:00,
2013-05-06 16:57:00,60.7,29.7,29.98,North,0,0.0,0.0,31,0.00,,,0.00,WUHU216HW,2013-05-06 22:57:00,
2013-05-06 17:03:00,60.3,29.4,29.98,North,0,0.0,0.0,31,0.00,,,0.00,WUHU216HW,2013-05-06 23:03:00,
2013-05-06 17:09:00,60.1,29.4,29.98,North,0,0.0,0.0,31,0.00,,,0.00,WUHU216HW,2013-05-06 23:09:00,
2013-05-06 17:15:00,59.8,29.0,29.98,North,0,0.0,0.0,31,0.00,,,0.00,WUHU216HW,2013-05-06 23:15:00,
2013-05-06 17:20:00,60.1,29.4,29.98,North,0,0.0,0.0,31,0.00,,,0.00,WUHU216HW,2013-05-06 23:20:00,
2013-05-06 17:26:00,59.9,29.2,29.98,North,0,0.0,0.0,31,0.00,,,0.00,WUHU216HW,2013-05-06 23:26:00,
2013-05-06 17:33:00,59.4,28.7,29.99,North,0,0.0,0.0,31,0.00,,,0.00,WUHU216HW,2013-05-06 23:33:00,
2013-05-06 17:39:00,59.4,28.7,29.99,North,0,0.0,0.0,31,0.00,,,0.00,WUHU216HW,2013-05-06 23:39:00,
2013-05-06 17:45:00,59.2,28.5,29.98,North,0,0.0,0.0,31,0.00,,,0.00,WUHU216HW,2013-05-06 23:45:00,
2013-05-06 17:50:00,59.2,28.5,29.99,North,0,0.0,0.0,31,0.00,,,0.00,WUHU216HW,2013-05-06 23:50:00,
2013-05-06 17:55:00,59.2,29.3,29.99,North,0,0.0,0.0,32,0.00,,,0.00,WUHU216HW,2013-05-06 23:55:00,
2013-05-06 18:02:00,59.0,28.5,29.98,North,0,0.0,0.0,31,0.00,,,0.00,WUHU216HW,2013-05-07 00:02:00,
2013-05-06 18:08:00,58.9,28.3,29.98,North,0,0.0,0.0,31,0.00,,,0.00,WUHU216HW,2013-05-07 00:08:00,
2013-05-06 18:14:00,58.7,28.1,29.98,North,0,0.0,0.0,31,0.00,,,0.00,WUHU216HW,2013-05-07 00:14:00,
2013-05-06 18:19:00,58.7,28.8,29.98,North,0,0.0,0.0,32,0.00,,,0.00,WUHU216HW,2013-05-07 00:19:00,
2013-05-06 18:24:00,58.7,28.8,29.98,North,0,0.0,0.0,32,0.00,,,0.00,WUHU216HW,2013-05-07 00:24:00,
2013-05-06 18:31:00,58.9,29.0,29.98,North,0,0.0,0.0,32,0.00,,,0.00,WUHU216HW,2013-05-07 00:31:00,
2013-05-06 18:38:00,58.7,28.8,29.98,North,0,0.0,0.0,32,0.00,,,0.00,WUHU216HW,2013-05-07 00:38:00,
2013-05-06 18:44:00,58.3,30.6,29.98,North,0,0.0,0.0,35,0.00,,,0.00,WUHU216HW,2013-05-07 00:44:00,
2013-05-06 18:50:00,57.8,31.5,29.98,North,0,0.0,0.0,37,0.00,,,0.00,WUHU216HW,2013-05-07 00:50:00,
2013-05-06 18:55:00,57.2,32.4,29.98,North,0,0.0,0.0,39,0.00,,,0.00,WUHU216HW,2013-05-07 00:55:00,
2013-05-06 19:01:00,56.9,32.1,29.98,North,0,0.0,0.0,39,0.00,,,0.00,WUHU216HW,2013-05-07 01:01:00,
2013-05-06 19:07:00,56.7,32.7,29.98,North,0,0.0,0.0,40,0.00,,,0.00,WUHU216HW,2013-05-07 01:07:00,
2013-05-06 19:13:00,56.7,32.7,29.98,North,0,0.0,0.0,40,0.00,,,0.00,WUHU216HW,2013-05-07 01:13:00,
2013-05-06 19:18:00,56.5,32.5,29.99,North,0,0.0,0.0,40,0.00,,,0.00,WUHU216HW,2013-05-07 01:18:00,
2013-05-06 19:24:00,56.3,32.3,29.99,North,0,0.0,0.0,40,0.00,,,0.00,WUHU216HW,2013-05-07 01:24:00,
2013-05-06 19:29:00,56.2,32.7,29.98,North,0,0.0,0.0,41,0.00,,,0.00,WUHU216HW,2013-05-07 01:29:00,
2013-05-06 19:35:00,55.6,34.5,29.99,North,0,0.0,0.0,45,0.00,,,0.00,WUHU216HW,2013-05-07 01:35:00,
2013-05-06 19:41:00,54.9,35.5,29.99,North,0,0.0,0.0,48,0.00,,,0.00,WUHU216HW,2013-05-07 01:41:00,
2013-05-06 19:47:00,54.2,34.8,29.99,North,0,0.0,0.0,48,0.00,,,0.00,WUHU216HW,2013-05-07 01:47:00,
2013-05-06 19:53:00,53.8,35.7,29.99,North,0,0.0,0.0,50,0.00,,,0.00,WUHU216HW,2013-05-07 01:53:00,
2013-05-06 19:59:00,53.5,35.3,29.99,North,0,0.0,0.0,50,0.00,,,0.00,WUHU216HW,2013-05-07 01:59:00,
2013-05-06 20:05:00,52.9,35.3,29.99,North,0,0.0,0.0,51,0.00,,,0.00,WUHU216HW,2013-05-07 02:05:00,
2013-05-06 20:10:00,52.9,35.3,29.99,North,0,0.0,0.0,51,0.00,,,0.00,WUHU216HW,2013-05-07 02:10:00,
2013-05-06 20:17:00,52.6,34.9,30.00,North,0,0.0,0.0,51,0.00,,,0.00,WUHU216HW,2013-05-07 02:17:00,
2013-05-06 20:23:00,52.4,34.7,29.99,North,0,0.0,0.0,51,0.00,,,0.00,WUHU216HW,2013-05-07 02:23:00,
2013-05-06 20:28:00,52.2,34.7,29.99,North,0,0.0,0.0,51,0.00,,,0.00,WUHU216HW,2013-05-07 02:28:00,
2013-05-06 20:34:00,52.2,34.7,29.99,North,0,0.0,0.0,51,0.00,,,0.00,WUHU216HW,2013-05-07 02:34:00,
2013-05-06 20:40:00,52.0,34.9,30.00,North,0,0.0,0.0,52,0.00,,,0.00,WUHU216HW,2013-05-07 02:40:00,
2013-05-06 20:46:00,51.8,34.7,30.00,North,0,0.0,0.0,52,0.00,,,0.00,WUHU216HW,2013-05-07 02:46:00,
2013-05-06 20:51:00,51.8,35.2,30.00,North,0,0.0,0.0,53,0.00,,,0.00,WUHU216HW,2013-05-07 02:51:00,
2013-05-06 20:57:00,51.8,35.2,30.00,North,0,0.0,0.0,53,0.00,,,0.00,WUHU216HW,2013-05-07 02:57:00,
2013-05-06 21:03:00,51.7,35.0,30.00,North,0,0.0,0.0,53,0.00,,,0.00,WUHU216HW,2013-05-07 03:03:00,
2013-05-06 21:09:00,51.5,35.3,30.00,North,0,0.0,0.0,54,0.00,,,0.00,WUHU216HW,2013-05-07 03:09:00,
2013-05-06 21:15:00,51.1,35.0,30.00,North,0,0.0,0.0,54,0.00,,,0.00,WUHU216HW,2013-05-07 03:15:00,
2013-05-06 21:20:00,50.9,34.8,30.00,North,0,0.0,0.0,54,0.00,,,0.00,WUHU216HW,2013-05-07 03:20:00,
2013-05-06 21:27:00,50.6,34.9,30.00,North,0,0.0,0.0,55,0.00,,,0.00,WUHU216HW,2013-05-07 03:27:00,
2013-05-06 21:32:00,50.2,34.7,30.00,North,0,0.0,0.0,55,0.00,,,0.00,WUHU216HW,2013-05-07 03:32:00,
2013-05-06 21:39:00,50.0,34.9,30.00,North,0,0.0,0.0,56,0.00,,,0.00,WUHU216HW,2013-05-07 03:39:00,
2013-05-06 21:44:00,49.7,34.6,30.00,North,0,0.0,0.0,56,0.00,,,0.00,WUHU216HW,2013-05-07 03:44:00,
2013-05-06 21:50:00,49.5,34.4,30.00,North,0,0.0,0.0,56,0.00,,,0.00,WUHU216HW,2013-05-07 03:50:00,
2013-05-06 21:55:00,49.1,34.6,30.00,North,0,0.0,0.0,57,0.00,,,0.00,WUHU216HW,2013-05-07 03:55:00,
2013-05-06 22:01:00,49.0,33.9,30.00,North,0,0.0,0.0,56,0.00,,,0.00,WUHU216HW,2013-05-07 04:01:00,
2013-05-06 22:02:00,49.0,33.9,30.00,North,0,0.0,0.0,56,0.00,,,0.00,WUHU216HW,2013-05-07 04:02:00,
2013-05-06 22:07:00,48.6,33.6,30.00,North,0,0.0,0.0,56,0.00,,,0.00,WUHU216HW,2013-05-07 04:07:00,
2013-05-06 22:12:00,47.9,32.9,30.00,North,0,0.0,0.0,56,0.00,,,0.00,WUHU216HW,2013-05-07 04:12:00,
2013-05-06 22:13:00,47.9,32.9,30.00,North,0,0.0,0.0,56,0.00,,,0.00,WUHU216HW,2013-05-07 04:13:00,
2013-05-06 22:19:00,47.7,34.1,30.00,North,0,0.0,0.0,59,0.00,,,0.00,WUHU216HW,2013-05-07 04:19:00,
2013-05-06 22:24:00,47.7,34.1,30.00,North,0,0.0,0.0,59,0.00,,,0.00,WUHU216HW,2013-05-07 04:24:00,
2013-05-06 22:30:00,47.5,33.5,30.00,North,0,0.0,0.0,58,0.00,,,0.00,WUHU216HW,2013-05-07 04:30:00,
2013-05-06 22:35:00,47.2,33.1,30.00,North,0,0.0,0.0,58,0.00,,,0.00,WUHU216HW,2013-05-07 04:35:00,
2013-05-06 22:41:00,46.6,32.1,30.00,North,0,0.0,0.0,57,0.00,,,0.00,WUHU216HW,2013-05-07 04:41:00,
2013-05-06 22:47:00,46.4,33.7,30.00,North,0,0.0,0.0,61,0.00,,,0.00,WUHU216HW,2013-05-07 04:47:00,
2013-05-06 22:53:00,46.6,33.5,30.00,North,0,0.0,0.0,60,0.00,,,0.00,WUHU216HW,2013-05-07 04:53:00,
2013-05-06 22:59:00,46.6,33.8,30.00,North,0,0.0,0.0,61,0.00,,,0.00,WUHU216HW,2013-05-07 04:59:00,
2013-05-06 23:05:00,46.6,34.3,30.00,North,0,0.0,0.0,62,0.00,,,0.00,WUHU216HW,2013-05-07 05:05:00,
2013-05-06 23:12:00,46.4,33.7,30.00,North,0,0.0,0.0,61,0.00,,,0.00,WUHU216HW,2013-05-07 05:12:00,
2013-05-06 23:17:00,45.9,33.2,30.00,North,0,0.0,0.0,61,0.00,,,0.00,WUHU216HW,2013-05-07 05:17:00,
2013-05-06 23:23:00,45.2,32.6,30.00,North,0,0.0,0.0,61,0.00,,,0.00,WUHU216HW,2013-05-07 05:23:00,
2013-05-06 23:29:00,44.6,32.4,30.00,North,0,0.0,0.0,62,0.00,,,0.00,WUHU216HW,2013-05-07 05:29:00,
2013-05-06 23:35:00,44.3,32.5,30.00,North,0,0.0,0.0,63,0.00,,,0.00,WUHU216HW,2013-05-07 05:35:00,
2013-05-06 23:41:00,44.3,32.5,30.00,North,0,0.0,0.0,63,0.00,,,0.00,WUHU216HW,2013-05-07 05:41:00,
2013-05-06 23:47:00,44.1,33.0,30.00,North,0,0.0,0.0,65,0.00,,,0.00,WUHU216HW,2013-05-07 05:47:00,
2013-05-06 23:54:00,44.1,33.0,30.00,North,0,0.0,0.0,65,0.00,,,0.00,WUHU216HW,2013-05-07 05:54:00,
2013-05-06 23:59:00,43.9,33.3,30.00,North,0,0.0,0.0,66,0.00,,,0.00,WUHU216HW,2013-05-07 05:59:00,